Benson, United Kingdom

9:02 AM GMT on February 08, 2016 (GMT +0000)
Benson Air Base

Weather History for EGUB - May, 2014

Change the Weather History Date:

Thursday, May 8, 2014

  Actual Average Record
Temperature  
Mean Temperature 56 °F -  
Max Temperature 62 °F 61 °F 75 °F (2008)
Min Temperature 49 °F 45 °F 38 °F (2015)
Degree Days  
Heating Degree Days 10    
Growing Degree Days 6 (Base 50)    
Moisture  
Dew Point 50 °F    
Average Humidity 82    
Maximum Humidity 95    
Minimum Humidity 67    
Precipitation  
Precipitation 0.08 in - - ()
Sea Level Pressure  
Sea Level Pressure 29.76 in    
Wind  
Wind Speed 11 mph ()    
Max Wind Speed 18 mph    
Max Gust Speed -    
Visibility 10.3 miles    
Events Rain    
Averages and records for this station are not official NWS values.
T = Trace of Precipitation, MM = Missing Value Source: Averaged Metar Reports

Daily Weather History Graph

Daily Weather History Graph

Search for Another Location

Airport or City:

Trip Planner

Search our weather history database for the weather conditions in past years. The results will help you decide how hot, cold, wet, or windy it might be!

Date:

Astronomy

May. 08, 2014 Rise Set
Actual Time 5:23 AM BST 8:39 PM BST
Civil Twilight 4:43 AM BST 9:19 PM BST
Nautical Twilight 3:50 AM BST 10:12 PM BST
Astronomical Twilight 2:40 AM BST 11:24 PM BST
Moon 1:41 PM BST 2:33 AM BST
Length of Visible Light 16h 35m
Length of Day
15h 15m
Waxing Gibbous, 62% of the Moon is Illuminated
May 8
Waxing Gibbous
May 14
Full
May 21
Last Quarter
May 28
New
Jun 5
First Quarter

Hourly Weather History & Observations

Time (BST) Temp. Dew Point Humidity Pressure Visibility Wind Dir Wind Speed Gust Speed Precip Events Conditions
12:00 AM 52 °F 44 °F 67% 29.88 in 19 mi SSW 10.4 mph - -   Mostly Cloudy
12:50 AM 51.8 °F 44.6 °F 76% 29.86 in 6.2 mi South 11.5 mph - N/A   Mostly Cloudy
1:00 AM 51 °F 45 °F 73% 29.87 in 19 mi South 11.5 mph - -   Mostly Cloudy
1:50 AM 50.0 °F 46.4 °F 87% 29.86 in 6.2 mi SSW 10.4 mph - N/A   Mostly Cloudy
2:00 AM 51 °F 46 °F 75% 29.87 in 13 mi SSW 10.4 mph - -   Scattered Clouds
2:50 AM 51.8 °F 44.6 °F 76% 29.86 in 6.2 mi SSW 9.2 mph - N/A   Mostly Cloudy
3:00 AM 51 °F 44 °F 71% 29.87 in 16 mi SSW 9.2 mph - -   Partly Cloudy
3:50 AM 50.0 °F 44.6 °F 82% 29.83 in 6.2 mi SSW 9.2 mph - N/A   Mostly Cloudy
4:00 AM 51 °F 44 °F 69% 29.86 in 16 mi SSW 9.2 mph - -   Mostly Cloudy
4:50 AM 50.0 °F 44.6 °F 82% 29.83 in 6.2 mi South 10.4 mph - N/A   Mostly Cloudy
5:00 AM 51 °F 44 °F 70% 29.84 in 16 mi South 10.4 mph - -   Mostly Cloudy
5:50 AM 50.0 °F 44.6 °F 82% 29.83 in 6.2 mi South 9.2 mph - N/A   Mostly Cloudy
6:00 AM 51 °F 44 °F 71% 29.83 in 16 mi South 9.2 mph - -   Mostly Cloudy
6:50 AM 50.0 °F 46.4 °F 87% 29.80 in 3.1 mi South 8.1 mph - N/A Rain Rain
7:00 AM 50 °F 47 °F 85% 29.83 in 3 mi South 8.1 mph - - Rain Rain
7:50 AM 51.8 °F 48.2 °F 88% 29.80 in 6.2 mi SSE 9.2 mph - N/A   Mostly Cloudy
8:00 AM 51 °F 48 °F 87% 29.81 in 16 mi SSE 9.2 mph - - Rain Light Rain
8:50 AM 51.8 °F 50.0 °F 94% 29.77 in 6.2 mi SSE 11.5 mph - N/A Rain Light Rain
9:00 AM 53 °F 50 °F 87% 29.79 in 12 mi SSE 11.5 mph - - Rain Light Rain
9:50 AM 53.6 °F 51.8 °F 94% 29.74 in 3.1 mi SSE 13.8 mph - N/A Rain Rain
10:00 AM 53 °F 51 °F 92% 29.75 in 3 mi SSE 13.8 mph - - Rain Heavy Rain
10:50 AM 55.4 °F 53.6 °F 94% 29.71 in 6.2 mi SSE 11.5 mph - N/A Rain Rain
11:00 AM 54 °F 53 °F 95% 29.73 in 9 mi SSE 11.5 mph - - Rain Heavy Rain
11:50 AM 55.4 °F 53.6 °F 94% 29.68 in 6.2 mi South 11.5 mph - N/A   Mostly Cloudy
12:00 PM 56 °F 54 °F 90% 29.71 in 16 mi South 11.5 mph - - Rain Light Rain
12:50 PM 57.2 °F 53.6 °F 88% 29.68 in 6.2 mi SSW 13.8 mph - N/A   Overcast
1:00 PM 58 °F 54 °F 83% 29.69 in 19 mi SSW 13.8 mph - - Rain Light Rain
1:50 PM 59.0 °F 55.4 °F 88% 29.68 in 6.2 mi SSW 15.0 mph - N/A   Mostly Cloudy
2:00 PM 59 °F 54 °F 80% 29.69 in 19 mi SSW 15.0 mph - -   Overcast
2:50 PM 60.8 °F 55.4 °F 82% 29.65 in 6.2 mi SW 13.8 mph - N/A   Overcast
3:00 PM 60 °F 55 °F 77% 29.68 in 16 mi SW 13.8 mph - -   Overcast
3:50 PM 60.8 °F 55.4 °F 82% 29.65 in 6.2 mi SW 16.1 mph - N/A   Mostly Cloudy
4:00 PM 61 °F 54 °F 73% 29.66 in 16 mi SW 16.1 mph - -   Mostly Cloudy
4:50 PM 59.0 °F 53.6 °F 82% 29.65 in 6.2 mi SW 16.1 mph - N/A   Overcast
5:00 PM 60 °F 54 °F 75% 29.67 in 19 mi SW 16.1 mph - -   Overcast
5:50 PM 59.0 °F 51.8 °F 77% 29.68 in 6.2 mi SW 18.4 mph - N/A   Mostly Cloudy
6:00 PM 58 °F 53 °F 76% 29.69 in 19 mi SW 18.4 mph - -   Mostly Cloudy
6:50 PM 57.2 °F 51.8 °F 82% 29.71 in 6.2 mi SW 18.4 mph - N/A   Mostly Cloudy
7:00 PM 58 °F 53 °F 76% 29.72 in 19 mi SW 18.4 mph - -   Mostly Cloudy
7:50 PM 55.4 °F 51.8 °F 88% 29.71 in 6.2 mi SW 17.3 mph - N/A   Mostly Cloudy
8:00 PM 56 °F 52 °F 81% 29.73 in 16 mi SW 17.3 mph - -   Partly Cloudy
8:50 PM 55.4 °F 51.8 °F 88% 29.74 in 6.2 mi SW 10.4 mph - N/A   Mostly Cloudy
9:00 PM 55 °F 51 °F 83% 29.75 in 12 mi SW 10.4 mph - -   Mostly Cloudy
9:50 PM 55.4 °F 50.0 °F 82% 29.77 in 6.2 mi SW 12.7 mph - N/A   Mostly Cloudy
10:00 PM 54 °F 51 °F 84% 29.77 in 12 mi SW 12.7 mph - -   Mostly Cloudy
10:50 PM 53.6 °F 50.0 °F 88% 29.77 in 6.2 mi SW 11.5 mph - N/A   Mostly Cloudy
11:00 PM 53 °F 50 °F 86% 29.78 in 9 mi SW 11.5 mph - -   Mostly Cloudy
11:50 PM 53.6 °F 50.0 °F 88% 29.77 in 6.2 mi SW 12.7 mph - N/A   Mostly Cloudy